Location: Haliburton Scout Reserve
(45.0900°N, 78.3200°W)
Time: 05:59:56
(UTC-04:00)

KKS-1 - Visible Passes

Search period start: 22 May 2022 00:00
Search period end: 01 June 2022 00:00
Orbit: 635 x 649 km, 98.2° (Epoch: 21 May)

Date Brightness Start Highest point End Pass type
(mag) Time Alt. Az. Time Alt. Az. Time Alt. Az.
22 May ? 22:44:43 10° NNE 22:48:55 40° E 22:50:12 32° SE visible
23 May ? 00:21:45 10° NNW 00:25:12 22° WNW 00:27:49 14° WSW visible
23 May ? 23:08:34 10° NNE 23:13:02 72° ESE 23:14:35 40° S visible
24 May ? 00:46:43 10° NNW 00:48:58 14° WNW 00:51:15 10° W visible
24 May ? 21:57:52 10° ENE 22:00:06 14° E 22:01:20 12° ESE visible
24 May ? 23:32:38 10° N 23:37:03 65° WNW 23:38:57 33° SW visible
25 May ? 22:20:48 10° NE 22:24:22 23° E 22:25:42 20° ESE visible
25 May ? 23:56:53 10° N 00:00:59 37° WNW 00:03:19 22° WSW visible
26 May ? 22:44:21 10° NNE 22:48:33 40° E 22:50:04 30° SE visible
27 May ? 00:21:21 10° NNW 00:24:50 23° WNW 00:27:41 13° WSW visible
27 May ? 23:08:11 10° NNE 23:12:39 71° ESE 23:14:25 35° S visible
28 May ? 00:46:16 10° NNW 00:48:36 14° WNW 00:50:56 10° W visible
28 May ? 21:57:32 10° ENE 21:59:42 13° E 22:01:09 12° ESE visible
28 May ? 23:32:13 10° N 23:36:39 66° WNW 23:38:47 30° SSW visible
29 May ? 22:20:24 10° NE 22:23:57 23° E 22:25:30 19° ESE visible
29 May ? 23:56:27 10° N 00:00:35 38° WNW 00:03:07 20° SW visible
30 May ? 22:43:56 10° NNE 22:48:07 39° E 22:49:51 28° SE visible
31 May ? 00:20:54 10° NNW 00:24:26 23° WNW 00:27:28 12° WSW visible
31 May ? 23:07:45 10° NNE 23:12:13 69° ESE 23:14:11 32° S visible
